スペースウォッチ彗星

125P/Spacewatch (2007)

English version
Home page
Updated on July 18, 2024

---------------------------------------------------------------------

・ プロフィール

・ 写真集

・ 軌道要素

The following orbital elements are taken from MPC 59320:

Epoch 2007 Aug. 8.0 TT = JDT 2454320.5
T 2007 Aug. 10.7466 TT                                  MPC
q   1.523597             (2000.0)            P               Q
n   0.1782790      Peri.   87.3392      -0.4850121      +0.8710055
a   3.126577       Node   153.1996      -0.8553492      -0.4538760
e   0.512695       Incl.    9.9856      -0.1820466      -0.1880055
P   5.53
From 282 observations 1991-2007, mean residual 0".6.  Nongravitational
     parameters A1 = -0.06, A2 = +0.0062.

・ 星図

・ 光度変化

        m1 = 9.5 + 5 logΔ + 20.0 log r(t - 100)  [   ,-30]  (              〜2007年 7月11日)
        m1 = 7.5 + 5 logΔ + 40   log r(t - 10)   [-30, 40]  (2007年 7月11日〜2007年 9月19日)
        m1 = 9.0 + 5 logΔ + 20.0 log r(t + 100)  [ 40,   ]  (2007年 9月19日〜              )

---------------------------------------------------------------------

軌道要素はMPCのEphemerides and Orbital Elementsに掲載されたものです。
星図は StellaNavigator Ver.2.0 for Windows (アストロアーツ 編著 / アスキー出版局刊) で作成したものです。
光度グラフはComet for Windowsで作成したものです。

---------------------------------------------------------------------

Copyright(C) Seiichi Yoshida (comet@aerith.net). All rights reserved.